Time,TemperatureF,DewpointF,PressureIn,WindDirection,WindDirectionDegrees,WindSpeedMPH,WindSpeedGustMPH,Humidity,HourlyPrecipIn,Conditions,Clouds,dailyrainin,SoftwareType,DateUTC
2013-03-18 00:00:00,33.8,22.1,30.30,NNE,23,0.4,2.2,62,0.00,,,0.00,WUHU216HW,2013-03-18 04:00:00,
2013-03-18 00:05:00,33.8,22.1,30.30,NW,315,1.8,2.2,62,0.00,,,0.00,WUHU216HW,2013-03-18 04:05:00,
2013-03-18 00:10:00,33.8,22.1,30.30,NNW,338,0.4,2.2,62,0.00,,,0.00,WUHU216HW,2013-03-18 04:10:00,
2013-03-18 00:15:00,33.8,22.1,30.30,NNE,23,2.2,2.5,62,0.00,,,0.00,WUHU216HW,2013-03-18 04:15:00,
2013-03-18 00:20:00,33.8,22.1,30.30,NE,45,0.9,3.4,62,0.00,,,0.00,WUHU216HW,2013-03-18 04:20:00,
2013-03-18 00:25:00,33.8,22.1,30.30,NNW,338,1.8,3.4,62,0.00,,,0.00,WUHU216HW,2013-03-18 04:25:00,
2013-03-18 00:30:00,34.0,22.3,30.30,North,0,0.7,3.4,62,0.00,,,0.00,WUHU216HW,2013-03-18 04:30:00,
2013-03-18 00:35:00,34.0,22.3,30.30,ENE,68,0.4,2.2,62,0.00,,,0.00,WUHU216HW,2013-03-18 04:35:00,
2013-03-18 00:40:00,34.0,22.3,30.30,NNW,338,0.7,3.1,62,0.00,,,0.00,WUHU216HW,2013-03-18 04:40:00,
2013-03-18 00:45:00,34.0,22.3,30.30,NW,315,2.2,3.1,62,0.00,,,0.00,WUHU216HW,2013-03-18 04:45:00,
2013-03-18 00:50:00,34.0,22.3,30.30,North,0,1.1,2.2,62,0.00,,,0.00,WUHU216HW,2013-03-18 04:50:00,
2013-03-18 00:55:00,34.0,22.3,30.30,North,0,1.1,2.2,62,0.00,,,0.00,WUHU216HW,2013-03-18 04:55:00,
2013-03-18 01:00:00,34.0,22.3,30.30,NW,315,2.5,2.5,62,0.00,,,0.00,WUHU216HW,2013-03-18 05:00:00,
2013-03-18 01:05:00,34.0,22.3,30.30,NW,315,2.5,2.5,62,0.00,,,0.00,WUHU216HW,2013-03-18 05:05:00,
2013-03-18 02:00:00,34.9,21.6,30.31,North,0,2.5,2.5,58,0.00,,,0.00,WUHU216HW,2013-03-18 06:00:00,
2013-03-18 02:05:00,34.9,21.6,30.31,North,0,2.5,2.5,58,0.00,,,0.00,WUHU216HW,2013-03-18 06:05:00,
2013-03-18 03:00:00,33.8,22.1,30.33,North,0,1.1,1.1,62,0.00,,,0.00,WUHU216HW,2013-03-18 07:00:00,
2013-03-18 03:05:00,33.8,22.1,30.33,North,0,1.1,1.1,62,0.00,,,0.00,WUHU216HW,2013-03-18 07:05:00,
2013-03-18 04:00:00,36.4,22.1,30.33,ENE,68,5.1,5.1,56,0.00,,,0.00,WUHU216HW,2013-03-18 08:00:00,
2013-03-18 04:05:00,36.4,22.1,30.33,ENE,68,5.4,8.7,56,0.00,,,0.00,WUHU216HW,2013-03-18 08:05:00,
2013-03-18 04:10:00,36.4,22.6,30.33,NE,45,7.6,8.7,57,0.00,,,0.00,WUHU216HW,2013-03-18 08:10:00,
2013-03-18 04:15:00,36.4,22.6,30.34,ESE,113,4.7,7.6,57,0.00,,,0.00,WUHU216HW,2013-03-18 08:15:00,
2013-03-18 04:20:00,36.4,22.1,30.34,East,90,6.3,8.9,56,0.00,,,0.00,WUHU216HW,2013-03-18 08:20:00,
2013-03-18 04:25:00,36.2,22.4,30.34,NE,45,1.1,8.9,57,0.00,,,0.00,WUHU216HW,2013-03-18 08:25:00,
2013-03-18 04:30:00,36.2,22.0,30.34,East,90,5.4,6.5,56,0.00,,,0.00,WUHU216HW,2013-03-18 08:30:00,
2013-03-18 04:35:00,36.2,21.5,30.34,ENE,68,6.9,6.9,55,0.00,,,0.00,WUHU216HW,2013-03-18 08:35:00,
2013-03-18 04:40:00,36.2,21.5,30.34,ENE,68,4.7,7.8,55,0.00,,,0.00,WUHU216HW,2013-03-18 08:40:00,
2013-03-18 04:45:00,36.2,22.0,30.33,ESE,113,5.1,7.8,56,0.00,,,0.00,WUHU216HW,2013-03-18 08:45:00,
2013-03-18 04:50:00,36.0,22.2,30.33,ENE,68,4.9,9.8,57,0.00,,,0.00,WUHU216HW,2013-03-18 08:50:00,
2013-03-18 04:55:00,36.0,21.8,30.34,ENE,68,8.5,9.8,56,0.00,,,0.00,WUHU216HW,2013-03-18 08:55:00,
2013-03-18 05:00:00,36.0,22.2,30.33,North,0,3.8,8.7,57,0.00,,,0.00,WUHU216HW,2013-03-18 09:00:00,
2013-03-18 05:05:00,36.0,22.7,30.34,ESE,113,4.5,8.7,58,0.00,,,0.00,WUHU216HW,2013-03-18 09:05:00,
2013-03-18 05:10:00,36.0,22.7,30.34,North,0,6.3,8.5,58,0.00,,,0.00,WUHU216HW,2013-03-18 09:10:00,
2013-03-18 05:15:00,35.6,22.3,30.34,East,90,7.4,8.5,58,0.00,,,0.00,WUHU216HW,2013-03-18 09:15:00,
2013-03-18 05:20:00,35.6,21.5,30.35,SSE,158,7.6,8.5,56,0.00,,,0.00,WUHU216HW,2013-03-18 09:20:00,
2013-03-18 05:25:00,35.5,21.8,30.35,ESE,113,4.3,9.8,57,0.00,,,0.00,WUHU216HW,2013-03-18 09:25:00,
2013-03-18 05:30:00,35.5,20.9,30.35,ESE,113,3.1,9.8,55,0.00,,,0.00,WUHU216HW,2013-03-18 09:30:00,
2013-03-18 05:35:00,35.3,20.7,30.35,ENE,68,4.0,9.2,55,0.00,,,0.00,WUHU216HW,2013-03-18 09:35:00,
2013-03-18 05:40:00,35.3,20.7,30.35,NE,45,3.4,8.9,55,0.00,,,0.00,WUHU216HW,2013-03-18 09:40:00,
2013-03-18 05:45:00,35.3,20.3,30.35,ESE,113,4.5,9.6,54,0.00,,,0.00,WUHU216HW,2013-03-18 09:45:00,
2013-03-18 05:50:00,35.1,20.1,30.35,ENE,68,3.4,9.6,54,0.00,,,0.00,WUHU216HW,2013-03-18 09:50:00,
2013-03-18 05:55:00,35.1,21.0,30.35,ENE,68,5.4,8.5,56,0.00,,,0.00,WUHU216HW,2013-03-18 09:55:00,
2013-03-18 06:00:00,35.1,20.1,30.35,NE,45,2.9,7.8,54,0.00,,,0.00,WUHU216HW,2013-03-18 10:00:00,
2013-03-18 06:05:00,35.1,21.0,30.36,ENE,68,1.8,7.8,56,0.00,,,0.00,WUHU216HW,2013-03-18 10:05:00,
2013-03-18 06:10:00,35.1,20.5,30.36,East,90,3.6,7.8,55,0.00,,,0.00,WUHU216HW,2013-03-18 10:10:00,
2013-03-18 06:15:00,34.9,20.8,30.36,ENE,68,3.6,7.8,56,0.00,,,0.00,WUHU216HW,2013-03-18 10:15:00,
2013-03-18 06:20:00,34.9,21.3,30.37,NE,45,6.3,7.6,57,0.00,,,0.00,WUHU216HW,2013-03-18 10:20:00,
2013-03-18 06:25:00,34.9,21.3,30.37,East,90,5.6,7.6,57,0.00,,,0.00,WUHU216HW,2013-03-18 10:25:00,
2013-03-18 06:30:00,34.9,21.3,30.36,ESE,113,6.9,9.2,57,0.00,,,0.00,WUHU216HW,2013-03-18 10:30:00,
2013-03-18 06:35:00,34.9,21.3,30.36,ENE,68,7.2,9.2,57,0.00,,,0.00,WUHU216HW,2013-03-18 10:35:00,
2013-03-18 06:40:00,34.9,22.1,30.36,ENE,68,5.4,8.5,59,0.00,,,0.00,WUHU216HW,2013-03-18 10:40:00,
2013-03-18 06:45:00,34.9,22.1,30.36,NE,45,6.9,9.2,59,0.00,,,0.00,WUHU216HW,2013-03-18 10:45:00,
2013-03-18 06:50:00,34.9,22.5,30.37,ENE,68,4.0,9.2,60,0.00,,,0.00,WUHU216HW,2013-03-18 10:50:00,
2013-03-18 06:55:00,35.1,22.2,30.37,NE,45,6.3,8.5,59,0.00,,,0.00,WUHU216HW,2013-03-18 10:55:00,
2013-03-18 07:00:00,35.1,22.2,30.37,ENE,68,8.9,9.2,59,0.00,,,0.00,WUHU216HW,2013-03-18 11:00:00,
2013-03-18 07:05:00,35.1,22.2,30.37,ESE,113,3.4,9.2,59,0.00,,,0.00,WUHU216HW,2013-03-18 11:05:00,
2013-03-18 07:10:00,34.9,21.3,30.38,NE,45,7.2,8.9,57,0.00,,,0.00,WUHU216HW,2013-03-18 11:10:00,
2013-03-18 07:15:00,35.1,21.8,30.37,NNE,23,7.2,8.5,58,0.00,,,0.00,WUHU216HW,2013-03-18 11:15:00,
2013-03-18 07:20:00,34.9,21.6,30.37,ESE,113,4.5,8.5,58,0.00,,,0.00,WUHU216HW,2013-03-18 11:20:00,
2013-03-18 07:25:00,35.1,22.2,30.37,NNE,23,3.6,8.1,59,0.00,,,0.00,WUHU216HW,2013-03-18 11:25:00,
2013-03-18 07:30:00,35.3,22.0,30.37,NE,45,4.9,8.5,58,0.00,,,0.00,WUHU216HW,2013-03-18 11:30:00,
2013-03-18 07:35:00,35.3,22.4,30.37,East,90,3.4,8.5,59,0.00,,,0.00,WUHU216HW,2013-03-18 11:35:00,
2013-03-18 07:40:00,35.5,22.1,30.38,East,90,4.7,5.8,58,0.00,,,0.00,WUHU216HW,2013-03-18 11:40:00,
2013-03-18 07:45:00,35.5,22.1,30.37,ESE,113,4.7,9.2,58,0.00,,,0.00,WUHU216HW,2013-03-18 11:45:00,
2013-03-18 07:50:00,35.5,22.1,30.37,ENE,68,4.7,9.2,58,0.00,,,0.00,WUHU216HW,2013-03-18 11:50:00,
2013-03-18 07:55:00,35.6,22.8,30.38,East,90,3.4,7.8,59,0.00,,,0.00,WUHU216HW,2013-03-18 11:55:00,
2013-03-18 08:00:00,35.6,22.8,30.38,ESE,113,4.3,8.1,59,0.00,,,0.00,WUHU216HW,2013-03-18 12:00:00,
2013-03-18 08:05:00,35.6,22.8,30.38,ENE,68,4.7,8.1,59,0.00,,,0.00,WUHU216HW,2013-03-18 12:05:00,
2013-03-18 08:10:00,35.8,22.5,30.38,SSE,158,4.5,6.3,58,0.00,,,0.00,WUHU216HW,2013-03-18 12:10:00,
2013-03-18 08:15:00,36.0,23.6,30.38,East,90,2.7,6.3,60,0.00,,,0.00,WUHU216HW,2013-03-18 12:15:00,
2013-03-18 08:20:00,36.0,23.1,30.38,SE,135,4.7,6.3,59,0.00,,,0.00,WUHU216HW,2013-03-18 12:20:00,
2013-03-18 08:25:00,36.2,23.3,30.38,SW,225,1.8,6.9,59,0.00,,,0.00,WUHU216HW,2013-03-18 12:25:00,
2013-03-18 08:30:00,36.2,23.3,30.37,East,90,4.5,6.9,59,0.00,,,0.00,WUHU216HW,2013-03-18 12:30:00,
2013-03-18 08:35:00,36.4,22.6,30.38,NNE,23,3.4,6.5,57,0.00,,,0.00,WUHU216HW,2013-03-18 12:35:00,
2013-03-18 08:40:00,36.5,22.3,30.37,East,90,3.6,6.7,56,0.00,,,0.00,WUHU216HW,2013-03-18 12:40:00,
2013-03-18 08:45:00,36.5,23.6,30.37,East,90,4.0,6.7,59,0.00,,,0.00,WUHU216HW,2013-03-18 12:45:00,
2013-03-18 08:50:00,36.7,23.8,30.37,ENE,68,4.7,5.8,59,0.00,,,0.00,WUHU216HW,2013-03-18 12:50:00,
2013-03-18 08:55:00,36.9,23.5,30.37,ESE,113,3.4,6.9,58,0.00,,,0.00,WUHU216HW,2013-03-18 12:55:00,
2013-03-18 09:00:00,37.1,23.7,30.37,NE,45,3.4,6.9,58,0.00,,,0.00,WUHU216HW,2013-03-18 13:00:00,
2013-03-18 09:05:00,37.3,24.2,30.37,NNE,23,4.3,6.7,59,0.00,,,0.00,WUHU216HW,2013-03-18 13:05:00,
2013-03-18 09:10:00,37.4,23.9,30.37,SSW,203,4.7,6.7,58,0.00,,,0.00,WUHU216HW,2013-03-18 13:10:00,
2013-03-18 09:15:00,37.8,24.3,30.37,NNW,338,4.3,5.6,58,0.00,,,0.00,WUHU216HW,2013-03-18 13:15:00,
2013-03-18 09:20:00,38.2,25.0,30.37,NE,45,3.4,5.6,59,0.00,,,0.00,WUHU216HW,2013-03-18 13:20:00,
2013-03-18 09:25:00,38.2,25.0,30.36,ESE,113,3.6,5.4,59,0.00,,,0.00,WUHU216HW,2013-03-18 13:25:00,
2013-03-18 09:30:00,38.3,25.2,30.36,NE,45,4.3,5.4,59,0.00,,,0.00,WUHU216HW,2013-03-18 13:30:00,
2013-03-18 09:35:00,38.5,25.4,30.36,ENE,68,4.3,5.6,59,0.00,,,0.00,WUHU216HW,2013-03-18 13:35:00,
2013-03-18 09:40:00,38.5,25.4,30.36,ENE,68,4.3,5.6,59,0.00,,,0.00,WUHU216HW,2013-03-18 13:40:00,
2013-03-18 09:45:00,38.5,25.8,30.36,East,90,2.9,6.9,60,0.00,,,0.00,WUHU216HW,2013-03-18 13:45:00,
2013-03-18 09:50:00,38.5,25.8,30.36,East,90,4.7,6.9,60,0.00,,,0.00,WUHU216HW,2013-03-18 13:50:00,
2013-03-18 09:55:00,38.7,26.4,30.36,ESE,113,5.6,5.6,61,0.00,,,0.00,WUHU216HW,2013-03-18 13:55:00,
2013-03-18 10:00:00,38.9,26.1,30.36,NE,45,3.1,5.6,60,0.00,,,0.00,WUHU216HW,2013-03-18 14:00:00,
2013-03-18 10:05:00,39.1,26.3,30.37,NE,45,5.1,5.6,60,0.00,,,0.00,WUHU216HW,2013-03-18 14:05:00,
2013-03-18 10:10:00,38.9,26.6,30.36,SSW,203,3.4,6.0,61,0.00,,,0.00,WUHU216HW,2013-03-18 14:10:00,
2013-03-18 10:15:00,38.9,26.6,30.36,ENE,68,3.1,6.0,61,0.00,,,0.00,WUHU216HW,2013-03-18 14:15:00,
2013-03-18 10:20:00,39.1,26.6,30.36,SE,135,2.5,5.4,61,0.00,,,0.00,WUHU216HW,2013-03-18 14:20:00,
2013-03-18 10:25:00,39.4,27.4,30.36,NE,45,1.8,5.4,62,0.00,,,0.00,WUHU216HW,2013-03-18 14:25:00,
2013-03-18 10:30:00,39.6,26.8,30.36,ESE,113,3.4,5.4,60,0.00,,,0.00,WUHU216HW,2013-03-18 14:30:00,
2013-03-18 10:35:00,39.6,27.2,30.36,SE,135,2.5,5.4,61,0.00,,,0.00,WUHU216HW,2013-03-18 14:35:00,
2013-03-18 10:40:00,39.6,27.2,30.36,ENE,68,2.7,5.4,61,0.00,,,0.00,WUHU216HW,2013-03-18 14:40:00,
2013-03-18 10:45:00,39.8,27.4,30.35,NW,315,3.4,4.9,61,0.00,,,0.00,WUHU216HW,2013-03-18 14:45:00,
2013-03-18 10:50:00,39.8,26.6,30.36,NE,45,3.8,6.0,59,0.00,,,0.00,WUHU216HW,2013-03-18 14:50:00,
2013-03-18 10:55:00,39.6,26.8,30.35,SE,135,4.3,6.3,60,0.00,,,0.00,WUHU216HW,2013-03-18 14:55:00,
2013-03-18 11:00:00,39.6,26.4,30.35,East,90,2.7,6.3,59,0.00,,,0.00,WUHU216HW,2013-03-18 15:00:00,
2013-03-18 11:05:00,40.0,27.2,30.34,South,180,4.0,5.6,60,0.00,,,0.00,WUHU216HW,2013-03-18 15:05:00,
2013-03-18 11:10:00,40.1,26.9,30.34,ENE,68,4.0,5.6,59,0.00,,,0.00,WUHU216HW,2013-03-18 15:10:00,
2013-03-18 11:15:00,40.3,27.5,30.33,ENE,68,3.8,5.6,60,0.00,,,0.00,WUHU216HW,2013-03-18 15:15:00,
2013-03-18 11:20:00,40.3,27.1,30.33,ESE,113,4.3,5.1,59,0.00,,,0.00,WUHU216HW,2013-03-18 15:20:00,
2013-03-18 11:25:00,40.5,26.8,30.33,SSE,158,4.9,6.0,58,0.00,,,0.00,WUHU216HW,2013-03-18 15:25:00,
2013-03-18 11:30:00,40.7,27.9,30.32,NE,45,4.0,6.0,60,0.00,,,0.00,WUHU216HW,2013-03-18 15:30:00,
2013-03-18 11:35:00,40.7,27.9,30.32,NNE,23,3.4,6.3,60,0.00,,,0.00,WUHU216HW,2013-03-18 15:35:00,
2013-03-18 11:40:00,40.7,27.0,30.33,ESE,113,5.1,6.3,58,0.00,,,0.00,WUHU216HW,2013-03-18 15:40:00,
2013-03-18 11:45:00,40.9,28.1,30.32,SE,135,2.9,6.3,60,0.00,,,0.00,WUHU216HW,2013-03-18 15:45:00,
2013-03-18 11:50:00,41.0,27.8,30.32,SE,135,2.2,5.1,59,0.00,,,0.00,WUHU216HW,2013-03-18 15:50:00,
2013-03-18 11:55:00,41.4,28.6,30.32,ENE,68,4.5,6.3,60,0.00,,,0.00,WUHU216HW,2013-03-18 15:55:00,
2013-03-18 12:00:00,41.4,28.6,30.32,NE,45,4.3,6.3,60,0.00,,,0.00,WUHU216HW,2013-03-18 16:00:00,
2013-03-18 12:05:00,41.6,28.7,30.31,ESE,113,5.1,6.3,60,0.00,,,0.00,WUHU216HW,2013-03-18 16:05:00,
2013-03-18 12:10:00,41.4,28.6,30.32,SSE,158,6.9,6.9,60,0.00,,,0.00,WUHU216HW,2013-03-18 16:10:00,
2013-03-18 12:15:00,41.2,28.8,30.32,SE,135,3.1,6.9,61,0.00,,,0.00,WUHU216HW,2013-03-18 16:15:00,
2013-03-18 12:20:00,41.0,29.0,30.32,East,90,6.9,6.9,62,0.00,,,0.00,WUHU216HW,2013-03-18 16:20:00,
2013-03-18 12:25:00,40.7,29.1,30.32,NE,45,4.7,6.9,63,0.00,,,0.00,WUHU216HW,2013-03-18 16:25:00,
2013-03-18 12:30:00,40.7,29.1,30.32,ENE,68,4.7,6.9,63,0.00,,,0.00,WUHU216HW,2013-03-18 16:30:00,
2013-03-18 12:35:00,40.5,29.3,30.30,SE,135,4.7,6.9,64,0.00,,,0.00,WUHU216HW,2013-03-18 16:35:00,
2013-03-18 12:40:00,40.3,29.4,30.30,ESE,113,6.9,7.2,65,0.00,,,0.00,WUHU216HW,2013-03-18 16:40:00,
2013-03-18 12:45:00,40.3,29.4,30.30,NNE,23,3.8,8.3,65,0.00,,,0.00,WUHU216HW,2013-03-18 16:45:00,
2013-03-18 12:50:00,40.3,29.4,30.30,SE,135,4.7,8.3,65,0.00,,,0.00,WUHU216HW,2013-03-18 16:50:00,
2013-03-18 12:55:00,40.3,29.8,30.29,NE,45,2.9,7.2,66,0.00,,,0.00,WUHU216HW,2013-03-18 16:55:00,
2013-03-18 13:00:00,40.5,30.3,30.28,ESE,113,5.4,7.6,67,0.00,,,0.00,WUHU216HW,2013-03-18 17:00:00,
2013-03-18 13:05:00,40.7,30.5,30.28,NE,45,5.8,8.5,67,0.00,,,0.00,WUHU216HW,2013-03-18 17:05:00,
2013-03-18 13:10:00,40.7,30.5,30.28,NNW,338,5.4,8.5,67,0.00,,,0.00,WUHU216HW,2013-03-18 17:10:00,
2013-03-18 13:15:00,40.7,31.0,30.28,NE,45,5.8,8.5,68,0.00,,,0.00,WUHU216HW,2013-03-18 17:15:00,
2013-03-18 13:20:00,40.9,31.5,30.27,ENE,68,5.1,7.6,69,0.00,,,0.00,WUHU216HW,2013-03-18 17:20:00,
2013-03-18 13:25:00,40.9,31.2,30.27,ENE,68,6.7,8.5,68,0.00,,,0.00,WUHU216HW,2013-03-18 17:25:00,
2013-03-18 13:30:00,40.7,31.7,30.26,East,90,6.7,8.5,70,0.00,,,0.00,WUHU216HW,2013-03-18 17:30:00,
2013-03-18 13:35:00,40.7,32.1,30.26,ESE,113,5.4,8.1,71,0.00,,,0.00,WUHU216HW,2013-03-18 17:35:00,
2013-03-18 13:40:00,40.7,32.3,30.26,SE,135,4.0,6.9,72,0.00,,,0.00,WUHU216HW,2013-03-18 17:40:00,
2013-03-18 13:45:00,40.7,32.3,30.25,NW,315,4.3,7.6,72,0.00,,,0.00,WUHU216HW,2013-03-18 17:45:00,
2013-03-18 13:50:00,40.7,32.7,30.25,WSW,248,5.8,7.6,73,0.00,,,0.00,WUHU216HW,2013-03-18 17:50:00,
2013-03-18 13:55:00,40.7,33.0,30.25,ESE,113,6.7,8.3,74,0.00,,,0.00,WUHU216HW,2013-03-18 17:55:00,
2013-03-18 14:00:00,40.5,32.5,30.26,ESE,113,5.4,8.3,73,0.00,,,0.00,WUHU216HW,2013-03-18 18:00:00,
2013-03-18 14:05:00,40.3,32.7,30.25,NE,45,6.0,7.4,74,0.00,,,0.00,WUHU216HW,2013-03-18 18:05:00,
2013-03-18 14:10:00,40.0,32.3,30.24,NW,315,6.0,8.9,74,0.00,,,0.00,WUHU216HW,2013-03-18 18:10:00,
2013-03-18 14:15:00,40.0,32.3,30.24,North,0,6.5,8.9,74,0.00,,,0.00,WUHU216HW,2013-03-18 18:15:00,
2013-03-18 14:20:00,39.8,32.5,30.24,East,90,7.4,7.8,75,0.00,,,0.00,WUHU216HW,2013-03-18 18:20:00,
2013-03-18 14:25:00,39.8,32.8,30.24,ENE,68,8.1,8.1,76,0.00,,,0.00,WUHU216HW,2013-03-18 18:25:00,
2013-03-18 14:30:00,39.8,33.1,30.24,SE,135,6.9,8.1,77,0.00,,,0.00,WUHU216HW,2013-03-18 18:30:00,
2013-03-18 14:35:00,39.6,32.9,30.24,ENE,68,7.2,8.9,77,0.00,,,0.00,WUHU216HW,2013-03-18 18:35:00,
2013-03-18 14:40:00,39.4,32.8,30.24,East,90,4.9,8.9,77,0.00,,,0.00,WUHU216HW,2013-03-18 18:40:00,
2013-03-18 14:45:00,39.4,33.5,30.23,NE,45,6.3,8.9,79,0.00,,,0.00,WUHU216HW,2013-03-18 18:45:00,
2013-03-18 14:50:00,39.2,33.3,30.23,ENE,68,6.3,8.9,79,0.00,,,0.00,WUHU216HW,2013-03-18 18:50:00,
2013-03-18 14:55:00,39.1,33.1,30.22,ESE,113,6.0,8.9,79,0.00,,,0.00,WUHU216HW,2013-03-18 18:55:00,
2013-03-18 15:00:00,38.9,32.9,30.22,ENE,68,4.7,8.9,79,0.00,,,0.00,WUHU216HW,2013-03-18 19:00:00,
2013-03-18 15:05:00,38.9,32.9,30.22,ENE,68,5.4,8.5,79,0.00,,,0.00,WUHU216HW,2013-03-18 19:05:00,
2013-03-18 15:10:00,38.9,32.9,30.22,ENE,68,5.4,5.4,79,0.00,,,0.00,WUHU216HW,2013-03-18 19:10:00,
2013-03-18 16:00:00,39.2,33.7,30.19,North,0,8.3,8.3,80,0.00,,,0.00,WUHU216HW,2013-03-18 20:00:00,
2013-03-18 16:05:00,39.2,33.7,30.19,ENE,68,7.6,9.6,80,0.00,,,0.00,WUHU216HW,2013-03-18 20:05:00,
2013-03-18 16:10:00,39.4,33.9,30.18,ESE,113,4.7,9.6,80,0.00,,,0.00,WUHU216HW,2013-03-18 20:10:00,
2013-03-18 16:15:00,39.4,33.9,30.17,SSE,158,5.8,10.3,80,0.00,,,0.00,WUHU216HW,2013-03-18 20:15:00,
2013-03-18 16:20:00,39.6,34.3,30.17,ENE,68,8.3,10.3,81,0.00,,,0.00,WUHU216HW,2013-03-18 20:20:00,
2013-03-18 16:25:00,39.6,34.3,30.17,ENE,68,5.1,8.3,81,0.00,,,0.00,WUHU216HW,2013-03-18 20:25:00,
2013-03-18 16:30:00,39.6,34.3,30.17,ENE,68,7.6,8.3,81,0.00,,,0.00,WUHU216HW,2013-03-18 20:30:00,
2013-03-18 16:35:00,39.4,34.7,30.16,NE,45,6.7,8.7,83,0.00,,,0.00,WUHU216HW,2013-03-18 20:35:00,
2013-03-18 16:40:00,39.2,34.8,30.16,ENE,68,5.8,8.7,84,0.00,,,0.00,WUHU216HW,2013-03-18 20:40:00,
2013-03-18 16:45:00,39.2,35.4,30.15,ENE,68,5.8,8.7,86,0.00,,,0.00,WUHU216HW,2013-03-18 20:45:00,
2013-03-18 16:50:00,39.2,35.4,30.15,SSE,158,6.5,8.7,86,0.00,,,0.00,WUHU216HW,2013-03-18 20:50:00,
2013-03-18 16:55:00,39.1,35.5,30.15,East,90,10.1,10.1,87,0.00,,,0.00,WUHU216HW,2013-03-18 20:55:00,
2013-03-18 17:00:00,39.1,35.8,30.16,East,90,6.3,10.1,88,0.00,,,0.00,WUHU216HW,2013-03-18 21:00:00,
2013-03-18 17:05:00,39.1,36.1,30.15,ESE,113,5.4,10.1,89,0.00,,,0.00,WUHU216HW,2013-03-18 21:05:00,
2013-03-18 17:10:00,39.2,36.5,30.15,SSW,203,5.4,9.2,90,0.00,,,0.00,WUHU216HW,2013-03-18 21:10:00,
2013-03-18 17:15:00,39.4,36.7,30.15,ESE,113,4.5,9.2,90,0.00,,,0.00,WUHU216HW,2013-03-18 21:15:00,
2013-03-18 17:20:00,39.4,36.7,30.15,SE,135,5.1,6.9,90,0.00,,,0.00,WUHU216HW,2013-03-18 21:20:00,
2013-03-18 17:25:00,39.6,36.9,30.15,East,90,5.4,6.3,90,0.00,,,0.00,WUHU216HW,2013-03-18 21:25:00,
2013-03-18 17:30:00,39.4,36.7,30.15,NNE,23,4.7,6.3,90,0.00,,,0.00,WUHU216HW,2013-03-18 21:30:00,
2013-03-18 17:35:00,39.4,37.0,30.15,NE,45,6.9,6.9,91,0.01,,,0.00,WUHU216HW,2013-03-18 21:35:00,
2013-03-18 17:40:00,39.4,37.0,30.14,South,180,2.5,6.9,91,0.01,,,0.00,WUHU216HW,2013-03-18 21:40:00,
2013-03-18 17:45:00,39.4,37.0,30.14,East,90,3.1,6.9,91,0.01,,,0.00,WUHU216HW,2013-03-18 21:45:00,
2013-03-18 17:50:00,39.6,37.4,30.13,East,90,7.4,8.7,92,0.02,,,0.02,WUHU216HW,2013-03-18 21:50:00,
2013-03-18 17:55:00,39.8,37.6,30.14,East,90,4.0,8.7,92,0.03,,,0.03,WUHU216HW,2013-03-18 21:55:00,
2013-03-18 18:00:00,39.8,37.6,30.13,ENE,68,4.7,7.4,92,0.03,,,0.03,WUHU216HW,2013-03-18 22:00:00,
2013-03-18 18:05:00,39.8,37.9,30.14,East,90,3.4,7.2,93,0.03,,,0.03,WUHU216HW,2013-03-18 22:05:00,
2013-03-18 18:10:00,39.8,37.9,30.13,East,90,5.4,8.5,93,0.03,,,0.03,WUHU216HW,2013-03-18 22:10:00,
2013-03-18 18:15:00,39.8,37.9,30.12,SSE,158,6.3,9.2,93,0.03,,,0.03,WUHU216HW,2013-03-18 22:15:00,
2013-03-18 18:20:00,39.8,37.9,30.12,East,90,4.5,9.2,93,0.04,,,0.04,WUHU216HW,2013-03-18 22:20:00,
2013-03-18 18:25:00,39.8,37.9,30.12,ENE,68,6.3,8.5,93,0.04,,,0.04,WUHU216HW,2013-03-18 22:25:00,
2013-03-18 18:30:00,40.0,38.1,30.12,ESE,113,4.7,8.5,93,0.04,,,0.04,WUHU216HW,2013-03-18 22:30:00,
2013-03-18 18:35:00,40.0,38.1,30.11,ESE,113,4.5,7.6,93,0.04,,,0.05,WUHU216HW,2013-03-18 22:35:00,
2013-03-18 18:40:00,39.8,37.9,30.10,SE,135,6.3,7.4,93,0.04,,,0.05,WUHU216HW,2013-03-18 22:40:00,
2013-03-18 18:45:00,39.8,37.9,30.10,East,90,4.5,7.8,93,0.03,,,0.05,WUHU216HW,2013-03-18 22:45:00,
2013-03-18 18:50:00,39.8,37.9,30.09,ESE,113,3.8,7.8,93,0.03,,,0.05,WUHU216HW,2013-03-18 22:50:00,
2013-03-18 18:55:00,39.8,37.9,30.09,ESE,113,5.8,10.5,93,0.02,,,0.05,WUHU216HW,2013-03-18 22:55:00,
2013-03-18 19:00:00,39.8,37.9,30.08,NE,45,8.3,10.5,93,0.02,,,0.05,WUHU216HW,2013-03-18 23:00:00,
2013-03-18 19:05:00,39.8,37.9,30.08,East,90,6.9,8.7,93,0.02,,,0.05,WUHU216HW,2013-03-18 23:05:00,
2013-03-18 19:10:00,40.0,38.1,30.08,ESE,113,6.3,8.5,93,0.02,,,0.05,WUHU216HW,2013-03-18 23:10:00,
2013-03-18 19:15:00,40.0,38.1,30.07,SE,135,5.8,8.5,93,0.02,,,0.05,WUHU216HW,2013-03-18 23:15:00,
2013-03-18 19:20:00,40.0,38.1,30.06,ENE,68,6.3,9.2,93,0.01,,,0.05,WUHU216HW,2013-03-18 23:20:00,
2013-03-18 19:25:00,40.0,38.1,30.06,ESE,113,6.3,9.2,93,0.01,,,0.05,WUHU216HW,2013-03-18 23:25:00,
2013-03-18 19:30:00,40.0,38.1,30.05,SE,135,5.8,9.4,93,0.01,,,0.05,WUHU216HW,2013-03-18 23:30:00,
2013-03-18 19:35:00,40.1,38.3,30.05,East,90,6.3,9.4,93,0.00,,,0.05,WUHU216HW,2013-03-18 23:35:00,
2013-03-18 19:40:00,40.3,38.4,30.05,SE,135,7.6,9.4,93,0.00,,,0.05,WUHU216HW,2013-03-18 23:40:00,
2013-03-18 19:45:00,40.3,38.4,30.04,ESE,113,5.4,9.2,93,0.00,,,0.05,WUHU216HW,2013-03-18 23:45:00,
2013-03-18 19:50:00,40.5,38.6,30.04,SE,135,6.7,7.6,93,0.00,,,0.05,WUHU216HW,2013-03-18 23:50:00,
2013-03-18 19:55:00,40.5,38.6,30.04,SE,135,6.7,7.6,93,0.00,,,0.05,WUHU216HW,2013-03-18 23:55:00,
2013-03-18 20:00:00,40.7,38.8,30.04,ENE,68,6.0,6.0,93,0.00,,,0.05,WUHU216HW,2013-03-19 00:00:00,
2013-03-18 20:05:00,40.7,38.8,30.04,ENE,68,6.0,6.0,93,0.00,,,0.05,WUHU216HW,2013-03-19 00:05:00,
2013-03-18 21:00:00,41.6,40.0,30.02,ENE,68,4.9,4.9,94,0.08,,,0.05,WUHU216HW,2013-03-19 01:00:00,
2013-03-18 21:05:00,41.6,40.0,30.02,ENE,68,4.9,4.9,94,0.08,,,0.05,WUHU216HW,2013-03-19 01:05:00,
2013-03-18 22:00:00,41.8,39.9,29.99,ENE,68,5.8,5.8,93,0.14,,,0.13,WUHU216HW,2013-03-19 02:00:00,
2013-03-18 22:05:00,41.8,39.9,29.99,ENE,68,5.8,5.8,93,0.14,,,0.13,WUHU216HW,2013-03-19 02:05:00,
2013-03-18 23:00:00,42.5,40.9,29.95,ESE,113,1.8,1.8,94,0.35,,,0.27,WUHU216HW,2013-03-19 03:00:00,
2013-03-18 23:05:00,42.7,41.0,29.95,NE,45,2.7,3.4,94,0.35,,,0.66,WUHU216HW,2013-03-19 03:05:00,
2013-03-18 23:10:00,42.7,41.0,29.94,NNE,23,0.7,3.4,94,0.37,,,0.70,WUHU216HW,2013-03-19 03:10:00,
2013-03-18 23:15:00,42.5,40.9,29.94,North,0,2.2,3.8,94,0.37,,,0.73,WUHU216HW,2013-03-19 03:15:00,
2013-03-18 23:20:00,42.3,40.7,29.94,ESE,113,2.2,5.4,94,0.37,,,0.77,WUHU216HW,2013-03-19 03:20:00,
2013-03-18 23:25:00,42.1,40.5,29.93,NNE,23,3.1,5.4,94,0.37,,,0.82,WUHU216HW,2013-03-19 03:25:00,
2013-03-18 23:30:00,42.3,40.7,29.92,ENE,68,4.9,5.4,94,0.39,,,0.85,WUHU216HW,2013-03-19 03:30:00,
2013-03-18 23:35:00,42.5,40.9,29.91,NE,45,2.5,5.4,94,0.37,,,0.86,WUHU216HW,2013-03-19 03:35:00,
2013-03-18 23:40:00,42.7,41.0,29.90,NNE,23,4.0,4.9,94,0.35,,,0.88,WUHU216HW,2013-03-19 03:40:00,
2013-03-18 23:45:00,42.8,41.2,29.90,NE,45,3.1,4.9,94,0.35,,,0.91,WUHU216HW,2013-03-19 03:45:00,
2013-03-18 23:50:00,43.0,41.4,29.89,ENE,68,5.4,6.9,94,0.37,,,0.94,WUHU216HW,2013-03-19 03:50:00,
2013-03-18 23:55:00,43.4,41.8,29.89,ENE,68,6.9,9.2,94,0.40,,,0.99,WUHU216HW,2013-03-19 03:55:00,